Time,TemperatureF,DewpointF,PressureIn,WindDirection,WindDirectionDegrees,WindSpeedMPH,WindSpeedGustMPH,Humidity,HourlyPrecipIn,Conditions,Clouds,dailyrainin,SolarRadiationWatts/m^2,SoftwareType,DateUTC
2013-01-17 00:02:00,31.5,28.1,30.03,SSW,212,2.0,4.0,87,0.00,,,0.07,0,Wunderground v.1.15,2013-01-17 05:02:00,
2013-01-17 00:06:00,31.5,28.1,30.03,SSW,207,2.0,4.0,87,0.00,,,0.00,0,Wunderground v.1.15,2013-01-17 05:06:00,
2013-01-17 00:08:00,31.5,28.1,30.03,West,277,2.0,4.0,87,0.00,,,0.00,0,Wunderground v.1.15,2013-01-17 05:08:00,
2013-01-17 00:10:00,31.4,28.0,30.02,SW,217,2.0,2.0,87,0.00,,,0.00,0,Wunderground v.1.15,2013-01-17 05:10:00,
2013-01-17 00:16:00,31.4,28.0,30.03,SSE,155,2.0,2.0,87,0.00,,,0.00,0,Wunderground v.1.15,2013-01-17 05:16:00,
2013-01-17 00:22:00,31.3,27.9,30.03,NW,314,1.0,2.0,87,0.00,,,0.00,0,Wunderground v.1.15,2013-01-17 05:22:00,
2013-01-17 00:28:00,31.3,27.9,30.04,SW,221,1.0,2.0,87,0.00,,,0.00,0,Wunderground v.1.15,2013-01-17 05:28:00,
2013-01-17 00:34:00,31.3,27.9,30.04,SSE,159,0.0,6.0,87,0.00,,,0.00,0,Wunderground v.1.15,2013-01-17 05:34:00,
2013-01-17 00:40:00,31.4,28.0,30.04,WNW,285,0.0,6.0,87,0.00,,,0.00,0,Wunderground v.1.15,2013-01-17 05:40:00,
2013-01-17 00:46:00,31.3,27.9,30.05,WNW,285,0.0,6.0,87,0.00,,,0.00,0,Wunderground v.1.15,2013-01-17 05:46:00,
2013-01-17 00:52:00,31.3,27.9,30.05,SW,234,1.0,6.0,87,0.00,,,0.00,0,Wunderground v.1.15,2013-01-17 05:52:00,
2013-01-17 00:58:00,31.4,27.7,30.06,SSW,198,1.0,6.0,86,0.00,,,0.00,0,Wunderground v.1.15,2013-01-17 05:58:00,
2013-01-17 01:04:00,31.4,27.7,30.06,SW,231,1.0,6.0,86,0.00,,,0.00,0,Wunderground v.1.15,2013-01-17 06:04:00,
2013-01-17 01:10:00,31.5,27.5,30.06,West,273,1.0,6.0,85,0.00,,,0.00,0,Wunderground v.1.15,2013-01-17 06:10:00,
2013-01-17 01:16:00,31.5,27.5,30.06,WSW,251,2.0,6.0,85,0.00,,,0.00,0,Wunderground v.1.15,2013-01-17 06:16:00,
2013-01-17 01:22:00,31.5,27.5,30.06,SW,229,1.0,3.0,85,0.00,,,0.00,0,Wunderground v.1.15,2013-01-17 06:22:00,
2013-01-17 01:28:00,31.6,27.6,30.06,West,261,2.0,7.0,85,0.00,,,0.00,0,Wunderground v.1.15,2013-01-17 06:28:00,
2013-01-17 01:34:00,31.8,27.5,30.06,WSW,254,3.0,6.0,84,0.00,,,0.00,0,Wunderground v.1.15,2013-01-17 06:34:00,
2013-01-17 01:40:00,31.9,27.6,30.06,NW,326,3.0,3.0,84,0.00,,,0.00,0,Wunderground v.1.15,2013-01-17 06:40:00,
2013-01-17 01:46:00,32.0,27.7,30.06,NW,321,3.0,7.0,84,0.00,,,0.00,0,Wunderground v.1.15,2013-01-17 06:46:00,
2013-01-17 01:52:00,32.0,27.7,30.06,NW,324,3.0,6.0,84,0.00,,,0.00,0,Wunderground v.1.15,2013-01-17 06:52:00,
2013-01-17 01:58:00,32.0,27.4,30.06,West,275,2.0,6.0,83,0.00,,,0.00,0,Wunderground v.1.15,2013-01-17 06:58:00,
2013-01-17 02:04:00,32.1,27.5,30.06,WNW,283,2.0,6.0,83,0.00,,,0.00,0,Wunderground v.1.15,2013-01-17 07:04:00,
2013-01-17 02:10:00,32.1,27.5,30.06,NW,306,3.0,6.0,83,0.00,,,0.00,0,Wunderground v.1.15,2013-01-17 07:10:00,
2013-01-17 02:16:00,32.1,27.5,30.06,WSW,257,4.0,6.0,83,0.00,,,0.00,0,Wunderground v.1.15,2013-01-17 07:16:00,
2013-01-17 02:22:00,32.2,27.3,30.06,WSW,240,3.0,6.0,82,0.00,,,0.00,0,Wunderground v.1.15,2013-01-17 07:22:00,
2013-01-17 02:28:00,32.2,27.3,30.06,WSW,237,3.0,6.0,82,0.00,,,0.00,0,Wunderground v.1.15,2013-01-17 07:28:00,
2013-01-17 02:34:00,32.1,27.2,30.07,WSW,248,3.0,6.0,82,0.00,,,0.00,0,Wunderground v.1.15,2013-01-17 07:34:00,
2013-01-17 02:40:00,32.1,27.5,30.07,WNW,290,2.0,2.0,83,0.00,,,0.00,0,Wunderground v.1.15,2013-01-17 07:40:00,
2013-01-17 02:46:00,32.1,27.5,30.07,WSW,250,2.0,6.0,83,0.00,,,0.00,0,Wunderground v.1.15,2013-01-17 07:46:00,
2013-01-17 02:52:00,32.1,27.2,30.07,SSW,211,3.0,4.0,82,0.00,,,0.00,0,Wunderground v.1.15,2013-01-17 07:52:00,
2013-01-17 02:58:00,32.1,27.2,30.07,WSW,246,3.0,7.0,82,0.00,,,0.00,0,Wunderground v.1.15,2013-01-17 07:58:00,
2013-01-17 03:04:00,32.1,27.2,30.08,WNW,291,3.0,6.0,82,0.00,,,0.00,0,Wunderground v.1.15,2013-01-17 08:04:00,
2013-01-17 03:10:00,32.1,27.5,30.07,WSW,242,3.0,3.0,83,0.00,,,0.00,0,Wunderground v.1.15,2013-01-17 08:10:00,
2013-01-17 03:16:00,32.0,27.4,30.08,West,280,2.0,6.0,83,0.00,,,0.00,0,Wunderground v.1.15,2013-01-17 08:16:00,
2013-01-17 03:22:00,32.0,27.4,30.08,SW,229,2.0,6.0,83,0.00,,,0.00,0,Wunderground v.1.15,2013-01-17 08:22:00,
2013-01-17 03:28:00,32.0,27.4,30.08,WSW,247,3.0,8.0,83,0.00,,,0.00,0,Wunderground v.1.15,2013-01-17 08:28:00,
2013-01-17 03:34:00,32.0,27.4,30.08,West,275,3.0,6.0,83,0.00,,,0.00,0,Wunderground v.1.15,2013-01-17 08:34:00,
2013-01-17 03:40:00,32.0,27.4,30.09,WNW,285,3.0,3.0,83,0.00,,,0.00,0,Wunderground v.1.15,2013-01-17 08:40:00,
2013-01-17 03:46:00,31.9,27.3,30.08,SSW,204,3.0,6.0,83,0.00,,,0.00,0,Wunderground v.1.15,2013-01-17 08:46:00,
2013-01-17 03:52:00,31.9,27.3,30.09,WNW,302,2.0,6.0,83,0.00,,,0.00,0,Wunderground v.1.15,2013-01-17 08:52:00,
2013-01-17 03:58:00,31.9,27.6,30.09,WNW,289,3.0,6.0,84,0.00,,,0.00,0,Wunderground v.1.15,2013-01-17 08:58:00,
2013-01-17 04:04:00,31.9,27.6,30.09,WNW,298,3.0,6.0,84,0.00,,,0.00,0,Wunderground v.1.15,2013-01-17 09:04:00,
2013-01-17 04:10:00,31.8,27.5,30.09,WSW,246,2.0,2.0,84,0.00,,,0.00,0,Wunderground v.1.15,2013-01-17 09:10:00,
2013-01-17 04:16:00,31.8,27.5,30.09,SSE,160,2.0,6.0,84,0.00,,,0.00,0,Wunderground v.1.15,2013-01-17 09:16:00,
2013-01-17 04:22:00,31.7,27.7,30.10,WNW,292,2.0,6.0,85,0.00,,,0.00,0,Wunderground v.1.15,2013-01-17 09:22:00,
2013-01-17 04:28:00,31.6,27.9,30.10,WSW,250,2.0,6.0,86,0.00,,,0.00,0,Wunderground v.1.15,2013-01-17 09:28:00,
2013-01-17 04:34:00,31.5,27.8,30.10,SSW,213,1.0,6.0,86,0.00,,,0.00,0,Wunderground v.1.15,2013-01-17 09:34:00,
2013-01-17 04:40:00,31.4,28.0,30.10,SW,220,1.0,6.0,87,0.00,,,0.00,0,Wunderground v.1.15,2013-01-17 09:40:00,
2013-01-17 04:46:00,31.2,27.8,30.10,SW,223,1.0,6.0,87,0.00,,,0.00,0,Wunderground v.1.15,2013-01-17 09:46:00,
2013-01-17 04:52:00,31.2,28.1,30.10,SW,235,1.0,6.0,88,0.00,,,0.00,0,Wunderground v.1.15,2013-01-17 09:52:00,
2013-01-17 04:58:00,31.2,27.8,30.11,SW,223,2.0,6.0,87,0.00,,,0.00,0,Wunderground v.1.15,2013-01-17 09:58:00,
2013-01-17 05:04:00,31.2,27.8,30.11,SW,215,2.0,6.0,87,0.00,,,0.00,0,Wunderground v.1.15,2013-01-17 10:04:00,
2013-01-17 05:10:00,31.2,27.8,30.11,SSE,155,2.0,6.0,87,0.00,,,0.00,0,Wunderground v.1.15,2013-01-17 10:10:00,
2013-01-17 05:16:00,31.2,27.8,30.11,WSW,238,2.0,6.0,87,0.00,,,0.00,0,Wunderground v.1.15,2013-01-17 10:16:00,
2013-01-17 05:22:00,31.2,27.8,30.11,WSW,244,1.0,6.0,87,0.00,,,0.00,0,Wunderground v.1.15,2013-01-17 10:22:00,
2013-01-17 05:28:00,31.2,27.8,30.11,WSW,244,0.0,6.0,87,0.00,,,0.00,0,Wunderground v.1.15,2013-01-17 10:28:00,
2013-01-17 05:34:00,31.2,27.8,30.11,WSW,239,0.0,6.0,87,0.00,,,0.00,0,Wunderground v.1.15,2013-01-17 10:34:00,
2013-01-17 05:40:00,31.3,27.6,30.12,SW,236,2.0,6.0,86,0.00,,,0.00,0,Wunderground v.1.15,2013-01-17 10:40:00,
2013-01-17 05:46:00,31.4,27.7,30.12,SSW,197,2.0,6.0,86,0.00,,,0.00,0,Wunderground v.1.15,2013-01-17 10:46:00,
2013-01-17 05:52:00,31.3,27.6,30.12,NNW,347,1.0,6.0,86,0.00,,,0.00,0,Wunderground v.1.15,2013-01-17 10:52:00,
2013-01-17 05:58:00,31.4,27.7,30.12,WSW,240,2.0,6.0,86,0.00,,,0.00,0,Wunderground v.1.15,2013-01-17 10:58:00,
2013-01-17 06:04:00,31.4,27.7,30.12,West,265,1.0,6.0,86,0.00,,,0.00,0,Wunderground v.1.15,2013-01-17 11:04:00,
2013-01-17 06:10:00,31.4,27.7,30.12,SW,236,1.0,6.0,86,0.00,,,0.00,0,Wunderground v.1.15,2013-01-17 11:10:00,
2013-01-17 06:16:00,31.4,27.7,30.13,West,277,1.0,6.0,86,0.00,,,0.00,0,Wunderground v.1.15,2013-01-17 11:16:00,
2013-01-17 06:22:00,31.5,27.8,30.13,West,273,1.0,2.0,86,0.00,,,0.00,0,Wunderground v.1.15,2013-01-17 11:22:00,
2013-01-17 06:28:00,31.4,27.7,30.13,WSW,251,1.0,6.0,86,0.00,,,0.00,0,Wunderground v.1.15,2013-01-17 11:28:00,
2013-01-17 06:34:00,31.4,27.7,30.13,West,259,1.0,6.0,86,0.00,,,0.00,0,Wunderground v.1.15,2013-01-17 11:34:00,
2013-01-17 06:40:00,31.4,27.4,30.13,West,271,1.0,6.0,85,0.00,,,0.00,0,Wunderground v.1.15,2013-01-17 11:40:00,
2013-01-17 06:46:00,31.4,27.7,30.14,West,275,1.0,6.0,86,0.00,,,0.00,0,Wunderground v.1.15,2013-01-17 11:46:00,
2013-01-17 06:52:00,31.4,27.7,30.13,West,275,1.0,6.0,86,0.00,,,0.00,0,Wunderground v.1.15,2013-01-17 11:52:00,
2013-01-17 06:58:00,31.4,27.7,30.14,SW,228,1.0,6.0,86,0.00,,,0.00,0,Wunderground v.1.15,2013-01-17 11:58:00,
2013-01-17 07:04:00,31.4,27.7,30.14,WSW,242,1.0,6.0,86,0.00,,,0.00,0,Wunderground v.1.15,2013-01-17 12:04:00,
2013-01-17 07:10:00,31.4,27.4,30.14,SW,221,2.0,6.0,85,0.00,,,0.00,0,Wunderground v.1.15,2013-01-17 12:10:00,
2013-01-17 07:16:00,31.5,27.5,30.14,WSW,248,2.0,6.0,85,0.00,,,0.00,0,Wunderground v.1.15,2013-01-17 12:16:00,
2013-01-17 07:22:00,31.4,27.4,30.14,SW,225,2.0,6.0,85,0.00,,,0.00,0,Wunderground v.1.15,2013-01-17 12:22:00,
2013-01-17 07:28:00,31.4,27.7,30.14,WSW,244,1.0,6.0,86,0.00,,,0.00,0,Wunderground v.1.15,2013-01-17 12:28:00,
2013-01-17 07:34:00,31.5,27.5,30.14,West,279,1.0,6.0,85,0.00,,,0.00,0,Wunderground v.1.15,2013-01-17 12:34:00,
2013-01-17 07:40:00,31.5,27.8,30.14,WNW,293,1.0,1.0,86,0.00,,,0.00,0,Wunderground v.1.15,2013-01-17 12:40:00,
2013-01-17 07:46:00,31.5,27.8,30.14,WNW,287,1.0,6.0,86,0.00,,,0.00,0,Wunderground v.1.15,2013-01-17 12:46:00,
2013-01-17 07:52:00,31.5,27.8,30.15,WNW,302,1.0,6.0,86,0.00,,,0.00,0,Wunderground v.1.15,2013-01-17 12:52:00,
2013-01-17 07:58:00,31.5,27.8,30.15,West,275,1.0,6.0,86,0.00,,,0.00,5,Wunderground v.1.15,2013-01-17 12:58:00,
2013-01-17 08:04:00,31.5,27.8,30.15,West,277,1.0,6.0,86,0.00,,,0.00,5,Wunderground v.1.15,2013-01-17 13:04:00,
2013-01-17 08:10:00,31.5,27.8,30.15,SW,222,1.0,1.0,86,0.00,,,0.00,7,Wunderground v.1.15,2013-01-17 13:10:00,
2013-01-17 08:16:00,31.5,27.8,30.16,SW,234,1.0,6.0,86,0.00,,,0.00,9,Wunderground v.1.15,2013-01-17 13:16:00,
2013-01-17 08:22:00,31.5,27.8,30.16,West,269,1.0,6.0,86,0.00,,,0.00,9,Wunderground v.1.15,2013-01-17 13:22:00,
2013-01-17 08:28:00,31.6,27.9,30.16,SSW,212,1.0,6.0,86,0.00,,,0.00,12,Wunderground v.1.15,2013-01-17 13:28:00,
2013-01-17 08:34:00,31.6,27.9,30.17,WSW,245,1.0,6.0,86,0.00,,,0.00,12,Wunderground v.1.15,2013-01-17 13:34:00,
2013-01-17 08:40:00,31.6,28.2,30.17,WSW,245,1.0,1.0,87,0.00,,,0.00,12,Wunderground v.1.15,2013-01-17 13:40:00,
2013-01-17 08:46:00,31.7,28.0,30.17,WSW,242,1.0,6.0,86,0.00,,,0.00,12,Wunderground v.1.15,2013-01-17 13:46:00,
2013-01-17 08:52:00,31.7,28.0,30.18,SW,219,2.0,6.0,86,0.00,,,0.00,14,Wunderground v.1.15,2013-01-17 13:52:00,
2013-01-17 08:58:00,31.7,28.0,30.19,NW,306,2.0,6.0,86,0.00,,,0.00,14,Wunderground v.1.15,2013-01-17 13:58:00,
2013-01-17 09:04:00,31.8,28.1,30.19,WSW,243,1.0,6.0,86,0.00,,,0.00,18,Wunderground v.1.15,2013-01-17 14:04:00,
2013-01-17 09:10:00,31.9,28.2,30.19,WSW,237,1.0,6.0,86,0.00,,,0.00,23,Wunderground v.1.15,2013-01-17 14:10:00,
2013-01-17 09:16:00,31.9,28.5,30.20,WSW,242,1.0,6.0,87,0.00,,,0.00,33,Wunderground v.1.15,2013-01-17 14:16:00,
2013-01-17 09:22:00,31.9,28.5,30.20,West,261,1.0,6.0,87,0.00,,,0.00,39,Wunderground v.1.15,2013-01-17 14:22:00,
2013-01-17 09:28:00,31.9,28.5,30.20,West,266,1.0,6.0,87,0.00,,,0.00,42,Wunderground v.1.15,2013-01-17 14:28:00,
2013-01-17 09:34:00,32.0,28.6,30.20,West,267,1.0,6.0,87,0.00,,,0.00,47,Wunderground v.1.15,2013-01-17 14:34:00,
2013-01-17 09:40:00,32.1,28.7,30.21,SW,230,1.0,1.0,87,0.00,,,0.00,53,Wunderground v.1.15,2013-01-17 14:40:00,
2013-01-17 09:46:00,32.2,28.8,30.21,WNW,287,1.0,6.0,87,0.00,,,0.00,63,Wunderground v.1.15,2013-01-17 14:46:00,
2013-01-17 09:52:00,32.2,28.5,30.21,SSW,213,1.0,6.0,86,0.00,,,0.00,58,Wunderground v.1.15,2013-01-17 14:52:00,
2013-01-17 09:58:00,32.3,28.6,30.20,SSW,208,1.0,6.0,86,0.00,,,0.00,67,Wunderground v.1.15,2013-01-17 14:58:00,
2013-01-17 10:04:00,32.4,28.7,30.21,WNW,285,1.0,6.0,86,0.00,,,0.00,60,Wunderground v.1.15,2013-01-17 15:04:00,
2013-01-17 10:10:00,32.4,28.7,30.21,WNW,292,1.0,6.0,86,0.00,,,0.00,60,Wunderground v.1.15,2013-01-17 15:10:00,
2013-01-17 10:16:00,32.5,28.8,30.20,West,279,1.0,6.0,86,0.00,,,0.00,58,Wunderground v.1.15,2013-01-17 15:16:00,
2013-01-17 10:22:00,32.5,28.8,30.20,WNW,294,1.0,6.0,86,0.00,,,0.00,63,Wunderground v.1.15,2013-01-17 15:22:00,
2013-01-17 10:28:00,32.6,28.9,30.20,West,263,1.0,6.0,86,0.00,,,0.00,93,Wunderground v.1.15,2013-01-17 15:28:00,
2013-01-17 10:34:00,32.6,28.9,30.21,WSW,242,2.0,6.0,86,0.00,,,0.00,91,Wunderground v.1.15,2013-01-17 15:34:00,
2013-01-17 10:40:00,32.7,29.0,30.20,SSW,202,1.0,6.0,86,0.00,,,0.00,102,Wunderground v.1.15,2013-01-17 15:40:00,
2013-01-17 10:46:00,32.8,28.8,30.20,West,273,2.0,6.0,85,0.00,,,0.00,111,Wunderground v.1.15,2013-01-17 15:46:00,
2013-01-17 10:52:00,32.9,28.9,30.20,WSW,257,2.0,6.0,85,0.00,,,0.00,98,Wunderground v.1.15,2013-01-17 15:52:00,
2013-01-17 10:58:00,33.0,29.0,30.20,West,279,2.0,6.0,85,0.00,,,0.00,102,Wunderground v.1.15,2013-01-17 15:58:00,
2013-01-17 11:04:00,33.0,29.0,30.20,West,281,2.0,6.0,85,0.00,,,0.00,105,Wunderground v.1.15,2013-01-17 16:04:00,
2013-01-17 11:10:00,33.2,28.9,30.20,SW,236,2.0,6.0,84,0.00,,,0.00,88,Wunderground v.1.15,2013-01-17 16:10:00,
2013-01-17 11:16:00,33.1,28.8,30.20,West,273,2.0,6.0,84,0.00,,,0.00,86,Wunderground v.1.15,2013-01-17 16:16:00,
2013-01-17 11:22:00,33.2,28.9,30.20,South,191,2.0,6.0,84,0.00,,,0.00,91,Wunderground v.1.15,2013-01-17 16:22:00,
2013-01-17 11:28:00,33.3,29.0,30.20,NW,314,2.0,6.0,84,0.00,,,0.00,90,Wunderground v.1.15,2013-01-17 16:28:00,
2013-01-17 11:34:00,33.3,29.0,30.19,WNW,301,2.0,6.0,84,0.00,,,0.00,116,Wunderground v.1.15,2013-01-17 16:34:00,
2013-01-17 11:40:00,33.4,28.8,30.19,WSW,252,2.0,6.0,83,0.00,,,0.00,127,Wunderground v.1.15,2013-01-17 16:40:00,
2013-01-17 11:46:00,33.5,28.9,30.18,WNW,296,2.0,6.0,83,0.00,,,0.00,132,Wunderground v.1.15,2013-01-17 16:46:00,
2013-01-17 11:52:00,33.6,29.0,30.18,WSW,244,2.0,6.0,83,0.00,,,0.01,160,Wunderground v.1.15,2013-01-17 16:52:00,
2013-01-17 11:58:00,33.8,29.2,30.17,NW,307,2.0,6.0,83,0.00,,,0.01,172,Wunderground v.1.15,2013-01-17 16:58:00,
2013-01-17 12:04:00,33.9,29.3,30.17,NW,306,1.0,6.0,83,0.00,,,0.01,142,Wunderground v.1.15,2013-01-17 17:04:00,
2013-01-17 12:10:00,33.9,29.0,30.16,WNW,302,1.0,6.0,82,0.00,,,0.01,162,Wunderground v.1.15,2013-01-17 17:10:00,
2013-01-17 12:16:00,34.0,29.1,30.16,SW,221,1.0,6.0,82,0.00,,,0.01,163,Wunderground v.1.15,2013-01-17 17:16:00,
2013-01-17 12:22:00,34.1,28.9,30.15,NNW,346,1.0,6.0,81,0.00,,,0.01,163,Wunderground v.1.15,2013-01-17 17:22:00,
2013-01-17 12:28:00,34.1,28.9,30.15,West,265,2.0,6.0,81,0.00,,,0.01,114,Wunderground v.1.15,2013-01-17 17:28:00,
2013-01-17 12:34:00,34.1,29.2,30.14,West,264,1.0,6.0,82,0.00,,,0.01,111,Wunderground v.1.15,2013-01-17 17:34:00,
2013-01-17 12:40:00,34.1,29.2,30.14,West,269,1.0,6.0,82,0.00,,,0.01,102,Wunderground v.1.15,2013-01-17 17:40:00,
2013-01-17 12:46:00,34.1,28.9,30.14,WSW,248,1.0,6.0,81,0.00,,,0.01,104,Wunderground v.1.15,2013-01-17 17:46:00,
2013-01-17 12:52:00,34.1,28.9,30.14,WNW,288,1.0,2.0,81,0.00,,,0.01,84,Wunderground v.1.15,2013-01-17 17:52:00,
2013-01-17 12:58:00,34.0,28.8,30.14,SW,224,1.0,6.0,81,0.00,,,0.01,69,Wunderground v.1.15,2013-01-17 17:58:00,
2013-01-17 13:04:00,33.9,29.0,30.14,SW,219,1.0,6.0,82,0.00,,,0.02,56,Wunderground v.1.15,2013-01-17 18:04:00,
2013-01-17 13:10:00,33.9,29.0,30.14,WSW,258,1.0,6.0,82,0.00,,,0.02,51,Wunderground v.1.15,2013-01-17 18:10:00,
2013-01-17 13:16:00,33.8,28.9,30.14,West,265,1.0,6.0,82,0.00,,,0.02,70,Wunderground v.1.15,2013-01-17 18:16:00,
2013-01-17 13:22:00,33.8,28.9,30.13,WSW,238,1.0,6.0,82,0.00,,,0.02,123,Wunderground v.1.15,2013-01-17 18:22:00,
2013-01-17 13:28:00,34.1,28.9,30.14,WSW,244,2.0,6.0,81,0.00,,,0.02,127,Wunderground v.1.15,2013-01-17 18:28:00,
2013-01-17 13:34:00,34.2,29.0,30.14,WNW,284,1.0,6.0,81,0.00,,,0.02,142,Wunderground v.1.15,2013-01-17 18:34:00,
2013-01-17 13:40:00,34.2,29.0,30.15,WSW,250,2.0,6.0,81,0.00,,,0.02,88,Wunderground v.1.15,2013-01-17 18:40:00,
2013-01-17 13:46:00,34.3,29.1,30.15,SW,235,2.0,6.0,81,0.00,,,0.02,97,Wunderground v.1.15,2013-01-17 18:46:00,
2013-01-17 13:52:00,34.3,29.1,30.15,SW,218,1.0,3.0,81,0.00,,,0.02,72,Wunderground v.1.15,2013-01-17 18:52:00,
2013-01-17 13:58:00,34.3,29.1,30.15,SSW,203,2.0,6.0,81,0.00,,,0.02,91,Wunderground v.1.15,2013-01-17 18:58:00,
2013-01-17 14:04:00,34.2,29.0,30.14,SW,236,1.0,6.0,81,0.00,,,0.02,56,Wunderground v.1.15,2013-01-17 19:04:00,
2013-01-17 14:10:00,34.1,28.6,30.15,WSW,255,2.0,6.0,80,0.00,,,0.02,63,Wunderground v.1.15,2013-01-17 19:10:00,
2013-01-17 14:16:00,34.1,28.6,30.13,West,265,3.0,6.0,80,0.00,,,0.02,58,Wunderground v.1.15,2013-01-17 19:16:00,
2013-01-17 14:22:00,34.0,28.5,30.13,WNW,297,1.0,6.0,80,0.00,,,0.03,49,Wunderground v.1.15,2013-01-17 19:22:00,
2013-01-17 14:28:00,34.0,28.5,30.13,SW,232,1.0,6.0,80,0.00,,,0.03,62,Wunderground v.1.15,2013-01-17 19:28:00,
2013-01-17 14:34:00,34.0,28.5,30.13,West,279,1.0,6.0,80,0.00,,,0.03,58,Wunderground v.1.15,2013-01-17 19:34:00,
2013-01-17 14:40:00,34.1,28.3,30.13,SW,228,1.0,6.0,79,0.00,,,0.03,54,Wunderground v.1.15,2013-01-17 19:40:00,
2013-01-17 14:46:00,34.1,28.3,30.13,WNW,292,1.0,6.0,79,0.00,,,0.03,44,Wunderground v.1.15,2013-01-17 19:46:00,
2013-01-17 14:52:00,34.1,28.0,30.14,WNW,286,2.0,6.0,78,0.00,,,0.03,42,Wunderground v.1.15,2013-01-17 19:52:00,
2013-01-17 14:58:00,34.1,27.6,30.13,WSW,252,2.0,6.0,77,0.00,,,0.03,44,Wunderground v.1.15,2013-01-17 19:58:00,
2013-01-17 15:04:00,34.0,27.5,30.13,WNW,298,1.0,6.0,77,0.00,,,0.03,44,Wunderground v.1.15,2013-01-17 20:04:00,
2013-01-17 15:10:00,33.9,27.8,30.13,WNW,296,1.0,1.0,78,0.00,,,0.03,42,Wunderground v.1.15,2013-01-17 20:10:00,
2013-01-17 15:16:00,33.9,27.8,30.14,WNW,290,1.0,6.0,78,0.00,,,0.03,44,Wunderground v.1.15,2013-01-17 20:16:00,
2013-01-17 15:22:00,33.9,27.8,30.14,WNW,282,1.0,2.0,78,0.00,,,0.03,39,Wunderground v.1.15,2013-01-17 20:22:00,
2013-01-17 15:28:00,34.0,27.9,30.14,NW,313,2.0,6.0,78,0.00,,,0.03,42,Wunderground v.1.15,2013-01-17 20:28:00,
2013-01-17 15:34:00,34.0,27.9,30.14,West,279,1.0,6.0,78,0.00,,,0.03,39,Wunderground v.1.15,2013-01-17 20:34:00,
2013-01-17 15:40:00,33.9,28.1,30.14,WSW,240,0.0,6.0,79,0.00,,,0.03,32,Wunderground v.1.15,2013-01-17 20:40:00,
2013-01-17 15:46:00,33.9,28.1,30.15,WSW,241,0.0,6.0,79,0.00,,,0.03,30,Wunderground v.1.15,2013-01-17 20:46:00,
2013-01-17 15:52:00,33.8,28.0,30.15,WSW,246,1.0,6.0,79,0.00,,,0.03,25,Wunderground v.1.15,2013-01-17 20:52:00,
2013-01-17 15:58:00,33.8,27.4,30.15,WNW,297,2.0,6.0,77,0.00,,,0.03,26,Wunderground v.1.15,2013-01-17 20:58:00,
2013-01-17 16:04:00,33.8,27.4,30.15,WNW,294,2.0,6.0,77,0.00,,,0.03,32,Wunderground v.1.15,2013-01-17 21:04:00,
2013-01-17 16:10:00,33.7,27.6,30.15,WNW,294,1.0,6.0,78,0.00,,,0.03,30,Wunderground v.1.15,2013-01-17 21:10:00,
2013-01-17 16:16:00,33.7,27.6,30.14,WNW,282,1.0,6.0,78,0.00,,,0.03,32,Wunderground v.1.15,2013-01-17 21:16:00,
2013-01-17 16:22:00,33.6,27.5,30.15,WSW,238,1.0,6.0,78,0.00,,,0.03,33,Wunderground v.1.15,2013-01-17 21:22:00,
2013-01-17 16:28:00,33.6,27.2,30.15,WSW,254,1.0,6.0,77,0.00,,,0.03,30,Wunderground v.1.15,2013-01-17 21:28:00,
2013-01-17 16:34:00,33.5,27.1,30.15,WSW,255,1.0,6.0,77,0.00,,,0.03,26,Wunderground v.1.15,2013-01-17 21:34:00,
2013-01-17 16:40:00,33.4,27.0,30.15,West,274,1.0,6.0,77,0.00,,,0.03,19,Wunderground v.1.15,2013-01-17 21:40:00,
2013-01-17 16:46:00,33.3,26.9,30.15,West,279,1.0,6.0,77,0.00,,,0.03,12,Wunderground v.1.15,2013-01-17 21:46:00,
2013-01-17 16:52:00,33.2,27.1,30.15,West,280,1.0,6.0,78,0.00,,,0.03,11,Wunderground v.1.15,2013-01-17 21:52:00,
2013-01-17 16:58:00,33.1,27.0,30.15,West,280,0.0,6.0,78,0.00,,,0.03,5,Wunderground v.1.15,2013-01-17 21:58:00,
2013-01-17 17:04:00,33.0,26.9,30.15,West,280,0.0,6.0,78,0.00,,,0.03,0,Wunderground v.1.15,2013-01-17 22:04:00,
2013-01-17 17:10:00,32.7,26.9,30.15,West,280,0.0,6.0,79,0.00,,,0.03,0,Wunderground v.1.15,2013-01-17 22:10:00,
2013-01-17 17:16:00,32.6,27.1,30.16,West,281,0.0,6.0,80,0.00,,,0.03,0,Wunderground v.1.15,2013-01-17 22:16:00,
2013-01-17 17:22:00,32.5,27.3,30.16,West,279,0.0,6.0,81,0.00,,,0.03,0,Wunderground v.1.15,2013-01-17 22:22:00,
2013-01-17 17:28:00,32.5,27.3,30.16,WNW,284,1.0,6.0,81,0.00,,,0.03,0,Wunderground v.1.15,2013-01-17 22:28:00,
2013-01-17 17:34:00,32.3,27.4,30.17,NW,312,1.0,6.0,82,0.00,,,0.03,0,Wunderground v.1.15,2013-01-17 22:34:00,
2013-01-17 17:40:00,32.1,27.5,30.17,NW,312,0.0,6.0,83,0.00,,,0.03,0,Wunderground v.1.15,2013-01-17 22:40:00,
2013-01-17 17:46:00,32.0,27.4,30.17,WNW,292,0.0,6.0,83,0.00,,,0.03,0,Wunderground v.1.15,2013-01-17 22:46:00,
2013-01-17 17:52:00,32.0,27.4,30.17,WNW,292,0.0,6.0,83,0.00,,,0.03,0,Wunderground v.1.15,2013-01-17 22:52:00,
2013-01-17 17:58:00,31.9,27.6,30.18,WNW,292,0.0,6.0,84,0.00,,,0.03,0,Wunderground v.1.15,2013-01-17 22:58:00,
2013-01-17 18:04:00,31.9,27.6,30.18,WNW,292,0.0,6.0,84,0.00,,,0.03,0,Wunderground v.1.15,2013-01-17 23:04:00,
2013-01-17 18:10:00,31.8,27.8,30.17,WNW,292,0.0,6.0,85,0.00,,,0.03,0,Wunderground v.1.15,2013-01-17 23:10:00,
2013-01-17 18:16:00,31.8,27.8,30.17,WNW,292,0.0,6.0,85,0.00,,,0.03,0,Wunderground v.1.15,2013-01-17 23:16:00,
2013-01-17 18:22:00,31.7,27.7,30.18,West,271,0.0,6.0,85,0.00,,,0.03,0,Wunderground v.1.15,2013-01-17 23:22:00,
2013-01-17 18:28:00,31.8,27.8,30.17,WNW,292,0.0,6.0,85,0.00,,,0.03,0,Wunderground v.1.15,2013-01-17 23:28:00,
2013-01-17 18:34:00,31.8,27.8,30.17,WNW,292,0.0,6.0,85,0.00,,,0.03,0,Wunderground v.1.15,2013-01-17 23:34:00,
2013-01-17 18:40:00,31.9,27.9,30.17,West,275,0.0,6.0,85,0.00,,,0.03,0,Wunderground v.1.15,2013-01-17 23:40:00,
2013-01-17 18:46:00,31.9,27.9,30.17,West,273,1.0,6.0,85,0.00,,,0.03,0,Wunderground v.1.15,2013-01-17 23:46:00,
2013-01-17 18:52:00,31.8,27.8,30.17,West,274,0.0,6.0,85,0.00,,,0.03,0,Wunderground v.1.15,2013-01-17 23:52:00,
2013-01-17 18:58:00,31.7,27.7,30.17,West,274,0.0,6.0,85,0.00,,,0.03,0,Wunderground v.1.15,2013-01-17 23:58:00,
2013-01-17 19:04:00,31.4,27.7,30.17,West,274,0.0,6.0,86,0.00,,,0.03,0,Wunderground v.1.15,2013-01-18 00:04:00,
2013-01-17 19:10:00,31.3,27.9,30.16,West,274,0.0,6.0,87,0.00,,,0.03,0,Wunderground v.1.15,2013-01-18 00:10:00,
2013-01-17 19:16:00,31.2,27.8,30.17,West,274,0.0,6.0,87,0.00,,,0.03,0,Wunderground v.1.15,2013-01-18 00:16:00,
2013-01-17 19:22:00,31.2,27.8,30.16,West,274,0.0,6.0,87,0.00,,,0.03,0,Wunderground v.1.15,2013-01-18 00:22:00,
2013-01-17 19:28:00,31.2,27.8,30.17,West,274,0.0,6.0,87,0.00,,,0.03,0,Wunderground v.1.15,2013-01-18 00:28:00,
2013-01-17 19:34:00,31.0,27.9,30.17,West,274,0.0,6.0,88,0.00,,,0.03,0,Wunderground v.1.15,2013-01-18 00:34:00,
2013-01-17 19:40:00,31.0,27.9,30.17,West,274,0.0,6.0,88,0.00,,,0.03,0,Wunderground v.1.15,2013-01-18 00:40:00,
2013-01-17 19:46:00,31.0,27.9,30.17,West,274,0.0,6.0,88,0.00,,,0.03,0,Wunderground v.1.15,2013-01-18 00:46:00,
2013-01-17 19:52:00,30.9,27.8,30.17,West,274,0.0,6.0,88,0.00,,,0.03,0,Wunderground v.1.15,2013-01-18 00:52:00,
2013-01-17 19:58:00,30.5,27.6,30.18,West,274,0.0,6.0,89,0.00,,,0.03,0,Wunderground v.1.15,2013-01-18 00:58:00,
2013-01-17 20:04:00,30.5,27.9,30.18,West,274,0.0,6.0,90,0.00,,,0.03,0,Wunderground v.1.15,2013-01-18 01:04:00,
2013-01-17 20:10:00,30.8,27.9,30.18,West,274,0.0,6.0,89,0.00,,,0.03,0,Wunderground v.1.15,2013-01-18 01:10:00,
2013-01-17 20:16:00,30.9,27.8,30.18,West,274,0.0,6.0,88,0.00,,,0.03,0,Wunderground v.1.15,2013-01-18 01:16:00,
2013-01-17 20:22:00,31.1,28.0,30.18,West,275,0.0,6.0,88,0.00,,,0.03,0,Wunderground v.1.15,2013-01-18 01:22:00,
2013-01-17 20:28:00,31.3,28.2,30.17,WNW,301,1.0,6.0,88,0.00,,,0.03,0,Wunderground v.1.15,2013-01-18 01:28:00,
2013-01-17 20:34:00,31.3,27.9,30.17,WNW,296,1.0,6.0,87,0.00,,,0.03,0,Wunderground v.1.15,2013-01-18 01:34:00,
2013-01-17 20:40:00,31.4,28.0,30.17,WNW,296,1.0,1.0,87,0.00,,,0.03,0,Wunderground v.1.15,2013-01-18 01:40:00,
2013-01-17 20:46:00,31.5,28.1,30.17,West,263,1.0,6.0,87,0.00,,,0.03,0,Wunderground v.1.15,2013-01-18 01:46:00,
2013-01-17 20:52:00,31.8,28.1,30.17,WNW,282,2.0,6.0,86,0.00,,,0.03,0,Wunderground v.1.15,2013-01-18 01:52:00,
2013-01-17 20:58:00,32.0,28.3,30.17,WNW,289,3.0,6.0,86,0.00,,,0.03,0,Wunderground v.1.15,2013-01-18 01:58:00,
2013-01-17 21:04:00,32.0,28.0,30.16,WNW,303,2.0,6.0,85,0.00,,,0.03,0,Wunderground v.1.15,2013-01-18 02:04:00,
2013-01-17 21:10:00,32.1,28.1,30.16,WNW,286,3.0,6.0,85,0.00,,,0.03,0,Wunderground v.1.15,2013-01-18 02:10:00,
2013-01-17 21:16:00,32.3,28.3,30.16,NW,317,5.0,6.0,85,0.00,,,0.03,0,Wunderground v.1.15,2013-01-18 02:16:00,
2013-01-17 21:22:00,32.3,28.3,30.15,West,267,4.0,6.0,85,0.00,,,0.03,0,Wunderground v.1.15,2013-01-18 02:22:00,
2013-01-17 21:28:00,32.3,28.0,30.16,NW,309,4.0,7.0,84,0.00,,,0.03,0,Wunderground v.1.15,2013-01-18 02:28:00,
2013-01-17 21:34:00,32.4,28.1,30.16,West,279,4.0,6.0,84,0.00,,,0.03,0,Wunderground v.1.15,2013-01-18 02:34:00,
2013-01-17 21:40:00,32.4,28.1,30.15,WSW,252,3.0,3.0,84,0.00,,,0.03,0,Wunderground v.1.15,2013-01-18 02:40:00,
2013-01-17 21:46:00,32.3,27.7,30.16,NW,314,2.0,6.0,83,0.00,,,0.03,0,Wunderground v.1.15,2013-01-18 02:46:00,
2013-01-17 21:52:00,32.3,27.7,30.15,NW,321,3.0,6.0,83,0.00,,,0.03,0,Wunderground v.1.15,2013-01-18 02:52:00,
2013-01-17 21:58:00,32.2,27.6,30.15,WNW,298,2.0,6.0,83,0.00,,,0.03,0,Wunderground v.1.15,2013-01-18 02:58:00,
2013-01-17 22:04:00,32.2,27.9,30.16,WNW,286,2.0,6.0,84,0.00,,,0.03,0,Wunderground v.1.15,2013-01-18 03:04:00,
2013-01-17 22:10:00,32.1,27.8,30.15,NW,311,2.0,2.0,84,0.00,,,0.03,0,Wunderground v.1.15,2013-01-18 03:10:00,
2013-01-17 22:16:00,32.1,27.8,30.15,SW,231,2.0,6.0,84,0.00,,,0.03,0,Wunderground v.1.15,2013-01-18 03:16:00,
2013-01-17 22:22:00,32.0,27.7,30.15,WSW,254,1.0,6.0,84,0.00,,,0.03,0,Wunderground v.1.15,2013-01-18 03:22:00,
2013-01-17 22:28:00,32.0,27.7,30.14,WNW,297,2.0,6.0,84,0.00,,,0.03,0,Wunderground v.1.15,2013-01-18 03:28:00,
2013-01-17 22:34:00,31.9,27.6,30.13,WNW,288,3.0,6.0,84,0.00,,,0.03,0,Wunderground v.1.15,2013-01-18 03:34:00,
2013-01-17 22:40:00,31.7,27.1,30.13,WNW,296,2.0,2.0,83,0.00,,,0.03,0,Wunderground v.1.15,2013-01-18 03:40:00,
2013-01-17 22:46:00,31.6,27.0,30.13,NW,316,2.0,6.0,83,0.00,,,0.03,0,Wunderground v.1.15,2013-01-18 03:46:00,
2013-01-17 22:52:00,31.4,26.8,30.13,West,275,2.0,6.0,83,0.00,,,0.03,0,Wunderground v.1.15,2013-01-18 03:52:00,
2013-01-17 22:58:00,31.2,26.6,30.14,WNW,299,1.0,6.0,83,0.00,,,0.03,0,Wunderground v.1.15,2013-01-18 03:58:00,
2013-01-17 23:04:00,31.1,26.8,30.14,WSW,253,1.0,6.0,84,0.00,,,0.03,0,Wunderground v.1.15,2013-01-18 04:04:00,
2013-01-17 23:10:00,31.0,26.7,30.14,WSW,244,1.0,6.0,84,0.00,,,0.03,0,Wunderground v.1.15,2013-01-18 04:10:00,
2013-01-17 23:16:00,30.8,26.5,30.14,West,266,1.0,6.0,84,0.00,,,0.03,0,Wunderground v.1.15,2013-01-18 04:16:00,
2013-01-17 23:22:00,30.8,26.5,30.13,West,271,1.0,6.0,84,0.00,,,0.03,0,Wunderground v.1.15,2013-01-18 04:22:00,
2013-01-17 23:28:00,30.8,26.5,30.13,North,10,0.0,6.0,84,0.00,,,0.03,0,Wunderground v.1.15,2013-01-18 04:28:00,
2013-01-17 23:34:00,30.9,26.6,30.14,WSW,240,1.0,6.0,84,0.00,,,0.03,0,Wunderground v.1.15,2013-01-18 04:34:00,
2013-01-17 23:40:00,31.0,26.7,30.14,WNW,286,2.0,2.0,84,0.00,,,0.03,0,Wunderground v.1.15,2013-01-18 04:40:00,
2013-01-17 23:46:00,30.9,26.3,30.14,West,271,1.0,6.0,83,0.00,,,0.03,0,Wunderground v.1.15,2013-01-18 04:46:00,
2013-01-17 23:52:00,30.9,26.1,30.15,NNW,328,3.0,4.0,82,0.00,,,0.03,0,Wunderground v.1.15,2013-01-18 04:52:00,
2013-01-17 23:58:00,30.8,25.4,30.15,WNW,303,3.0,6.0,80,0.00,,,0.03,0,Wunderground v.1.15,2013-01-18 04:58:00,